This is the latest recevied weather packets stored in our database for station/object N2PUI. If no packets are shown the sender has not sent any weather packets the latest 10 day(s).
| Time | Temp. | Humidity | Pressure | Rain* | Wind** | Luminosity | Snow |
|---|---|---|---|---|---|---|---|
| 1777757862 | 7.78° C | 51% | 1013.3 hPa | 0 mm | - | 123 W/m² | - |
| 1777757560 | 7.78° C | 52% | 1013.1 hPa | 0 mm | - | 128 W/m² | - |
| 1777757259 | 7.78° C | 51% | 1013 hPa | 0 mm | - | 108 W/m² | - |
| 1777756956 | 7.78° C | 52% | 1013.1 hPa | 0 mm | - | 97 W/m² | - |
| 1777756652 | 7.78° C | 51% | 1013.3 hPa | 0 mm | - | 88 W/m² | - |
| 1777756349 | 7.78° C | 50% | 1013 hPa | 0 mm | - | 93 W/m² | - |
| 1777756046 | 7.78° C | 52% | 1013 hPa | 0 mm | - | 95 W/m² | - |
| 1777755744 | 7.78° C | 51% | 1013.4 hPa | 0 mm | - | 98 W/m² | - |
| 1777755441 | 7.78° C | 50% | 1013.4 hPa | 0 mm | - | 111 W/m² | - |
| 1777755137 | 7.78° C | 51% | 1013.3 hPa | 0 mm | - | 140 W/m² | - |
| 1777754834 | 8.33° C | 51% | 1013.4 hPa | 0 mm | - | 166 W/m² | - |
| 1777754532 | 7.78° C | 51% | 1013.4 hPa | 0 mm | - | 202 W/m² | - |
| 1777754229 | 7.78° C | 51% | 1013 hPa | 0 mm | - | 221 W/m² | - |
| 1777753926 | 8.33° C | 51% | 1013.3 hPa | 0 mm | - | 148 W/m² | - |
| 1777753620 | 7.78° C | 50% | 1013.6 hPa | 0 mm | - | 164 W/m² | - |
| 1777753319 | 7.78° C | 51% | 1013.6 hPa | 0 mm | - | 188 W/m² | - |
| 1777753016 | 7.78° C | 49% | 1013.1 hPa | 0 mm | - | 218 W/m² | - |
| 1777752713 | 7.78° C | 48% | 1013.5 hPa | 0 mm | - | 195 W/m² | - |
| 1777752408 | 7.78° C | 49% | 1013.7 hPa | 0 mm | - | 196 W/m² | - |
| 1777752105 | 7.78° C | 48% | 1013.6 hPa | 0 mm | - | 199 W/m² | - |
| 1777751803 | 8.33° C | 48% | 1013.7 hPa | 0 mm | - | 208 W/m² | - |
| 1777751499 | 8.33° C | 48% | 1013.7 hPa | 0 mm | - | 241 W/m² | - |
| 1777751196 | 8.33° C | 47% | 1013.7 hPa | 0 mm | - | 197 W/m² | - |
| 1777750893 | 8.33° C | 49% | 1013.7 hPa | 0 mm | - | 150 W/m² | - |
| 1777750589 | 8.33° C | 48% | 1013.9 hPa | 0 mm | - | 149 W/m² | - |
* Rain latest hour (hover to see other rain measurements)
** Current wind speed in m/s (hover to see current wind gust speed)